Temp
-14 -15 -15 -15 -16 -17 -18 -19 -19 -19 -19 -19 -20 -20 -21 -22 -22 -22 -23 -24 -26 -27 -28 -28 -29 -30 -31 -32 -33 -34 -35 -35 -35 -35 -35 -35 -35 -35 -35 -36 -36 -36 -36 -36 -36 -36 -36 -36 -36 -36 -36 -35 -35 -35
-15 -15 -15 -16 -17 -18 -19 -19 -19 -19 -19 -20 -20 -21 -22 -22 -22 -23 -24 -25 -26 -27 -28 -29 -29 -31 -31 -33 -34 -34 -35 -35 -35 -35 -35 -35 -35 -36 -36 -36 -36 -35 -36 -36 -36 -36 -36 -36 -36 -36 -36 -36 -36 -35
-15 -15 -15 -17 -18 -18 -19 -19 -19 -19 -20 -20 -21 -22 -23 -23 -23 -23 -24 -26 -27 -28 -29 -29 -30 -31 -32 -33 -34 -35 -36 -35 -35 -35 -36 -35 -36 -36 -36 -36 -37 -37 -37 -37 -37 -37 -37 -36 -36 -36 -36 -36 -36 -36
-16 -15 -17 -18 -18 -18 -19 -19 -19 -19 -19 -20 -21 -22 -23 -23 -23 -24 -25 -26 -28 -29 -29 -30 -31 -32 -33 -34 -34 -35 -36 -36 -36 -36 -36 -36 -36 -36 -36 -37 -37 -37 -37 -37 -37 -37 -37 -37 -37 -37 -37 -36 -36 -36
-16 -17 -18 -18 -18 -18 -19 -19 -19 -19 -20 -21 -22 -23 -23 -23 -24 -25 -26 -27 -28 -29 -30 -31 -31 -32 -33 -34 -35 -35 -36 -36 -36 -37 -37 -37 -37 -37 -37 -37 -37 -37 -37 -37 -37 -37 -37 -37 -37 -37 -37 -37 -37 -37
-16 -18 -18 -18 -18 -18 -19 -19 -19 -19 -20 -21 -22 -23 -23 -23 -24 -25 -27 -27 -29 -29 -30 -30 -32 -33 -34 -35 -35 -36 -36 -36 -37 -37 -37 -37 -37 -37 -37 -37 -38 -38 -38 -38 -37 -37 -37 -37 -37 -37 -37 -37 -37 -37
-18 -18 -18 -18 -18 -18 -19 -19 -19 -19 -20 -21 -22 -22 -23 -23 -24 -25 -26 -28 -29 -30 -30 -31 -32 -33 -34 -35 -36 -36 -37 -37 -37 -37 -37 -37 -38 -38 -38 -37 -37 -38 -38 -38 -38 -38 -38 -38 -38 -38 -37 -37 -37 -37
-18 -18 -18 -18 -18 -19 -19 -19 -19 -20 -20 -21 -22 -22 -22 -23 -25 -26 -27 -28 -29 -30 -30 -31 -32 -33 -34 -35 -36 -36 -37 -37 -37 -38 -38 -38 -38 -38 -38 -38 -38 -38 -38 -38 -38 -38 -38 -37 -37 -37 -37 -37 -37 -37
-18 -18 -18 -18 -18 -18 -19 -19 -19 -20 -20 -21 -21 -22 -23 -24 -24 -26 -27 -28 -28 -29 -30 -31 -32 -33 -34 -35 -35 -36 -37 -37 -37 -37 -37 -38 -37 -37 -38 -38 -38 -38 -38 -38 -38 -38 -38 -38 -38 -38 -38 -37 -37 -37
-18 -18 -18 -18 -18 -19 -19 -19 -19 -20 -20 -20 -21 -22 -22 -23 -24 -25 -26 -27 -28 -29 -30 -31 -32 -33 -34 -35 -36 -36 -36 -37 -37 -37 -37 -37 -38 -38 -39 -39 -39 -38 -38 -38 -37 -37 -38 -38 -38 -38 -38 -38 -38 -37
-19 -18 -18 -18 -19 -19 -19 -19 -20 -20 -20 -20 -21 -21 -21 -22 -23 -24 -25 -26 -27 -29 -30 -31 -32 -33 -34 -35 -35 -35 -36 -36 -36 -37 -37 -38 -39 -39 -39 -38 -38 -38 -38 -38 -38 -38 -38 -38 -38 -38 -38 -38 -38 -38
-19 -18 -18 -19 -19 -19 -19 -19 -19 -20 -20 -20 -21 -21 -21 -22 -23 -24 -25 -26 -28 -29 -30 -30 -31 -32 -33 -34 -34 -34 -35 -36 -37 -37 -38 -39 -39 -38 -38 -38 -38 -38 -38 -38 -38 -38 -38 -39 -39 -39 -39 -39 -40 -39
-18 -18 -19 -19 -19 -19 -19 -19 -20 -20 -20 -21 -21 -21 -21 -22 -23 -24 -26 -27 -28 -29 -30 -31 -31 -32 -32 -33 -34 -34 -36 -37 -37 -38 -38 -38 -38 -38 -38 -38 -38 -38 -38 -38 -39 -39 -40 -40 -40 -40 -40 -40 -40 -40
-18 -19 -19 -19 -19 -19 -19 -20 -20 -20 -20 -21 -21 -21 -22 -23 -23 -25 -26 -27 -28 -29 -30 -31 -31 -31 -32 -33 -34 -35 -36 -37 -37 -37 -37 -37 -37 -38 -38 -38 -38 -38 -38 -38 -39 -39 -40 -40 -40 -41 -41 -41 -41 -41
-19 -19 -19 -19 -19 -19 -20 -20 -20 -20 -21 -21 -21 -22 -22 -23 -24 -24 -26 -27 -28 -28 -30 -30 -31 -31 -32 -32 -34 -35 -36 -36 -37 -37 -37 -37 -37 -37 -37 -37 -38 -38 -38 -38 -39 -39 -40 -40 -40 -40 -41 -41 -41 -41
-19 -19 -19 -19 -19 -19 -20 -20 -20 -21 -21 -21 -22 -22 -23 -23 -24 -24 -25 -26 -27 -28 -29 -30 -30 -31 -32 -33 -34 -35 -35 -36 -36 -36 -37 -37 -37 -37 -37 -38 -38 -38 -38 -38 -39 -39 -40 -40 -40 -40 -40 -40 -41 -40
-19 -19 -19 -19 -19 -20 -20 -20 -21 -21 -20 -21 -22 -22 -23 -23 -23 -24 -25 -25 -26 -27 -28 -29 -30 -31 -32 -33 -33 -34 -35 -35 -35 -36 -37 -37 -37 -37 -37 -38 -38 -38 -38 -38 -39 -39 -40 -40 -40 -40 -40 -40 -40 -40
-19 -19 -19 -19 -20 -20 -20 -21 -21 -21 -21 -21 -22 -22 -22 -23 -23 -24 -24 -25 -26 -26 -27 -28 -29 -30 -31 -32 -33 -34 -34 -35 -35 -35 -36 -37 -37 -37 -38 -37 -38 -38 -38 -38 -38 -39 -39 -39 -39 -39 -40 -40 -40 -40
-19 -19 -19 -20 -20 -20 -20 -20 -20 -21 -21 -21 -22 -22 -22 -23 -23 -23 -24 -25 -26 -26 -27 -27 -28 -29 -30 -31 -32 -33 -33 -34 -35 -35 -35 -36 -37 -37 -37 -37 -37 -38 -38 -38 -38 -38 -38 -39 -39 -39 -40 -40 -40 -40
-20 -19 -20 -20 -20 -20 -20 -20 -21 -21 -21 -21 -22 -22 -22 -23 -23 -23 -24 -25 -26 -26 -27 -27 -28 -29 -30 -31 -32 -32 -33 -33 -34 -34 -35 -35 -36 -37 -37 -37 -37 -37 -38 -37 -37 -37 -38 -39 -39 -39 -39 -39 -40 -40
-19 -19 -20 -20 -20 -20 -20 -20 -21 -21 -21 -21 -21 -22 -22 -23 -23 -23 -24 -25 -26 -26 -26 -27 -28 -29 -30 -30 -31 -32 -33 -33 -33 -33 -34 -34 -35 -36 -37 -37 -37 -37 -37 -37 -37 -37 -38 -38 -38 -39 -39 -39 -39 -39
-20 -20 -20 -20 -20 -20 -20 -20 -20 -21 -21 -21 -21 -22 -22 -22 -23 -23 -24 -24 -25 -26 -26 -27 -27 -28 -29 -30 -30 -31 -32 -33 -33 -33 -34 -34 -34 -35 -36 -37 -37 -37 -37 -37 -37 -37 -37 -38 -38 -39 -39 -39 -39 -39
-20 -20 -20 -20 -20 -20 -20 -20 -20 -21 -21 -21 -21 -22 -22 -22 -23 -23 -24 -24 -25 -26 -27 -27 -28 -28 -29 -30 -30 -31 -31 -32 -32 -33 -33 -34 -34 -35 -35 -36 -37 -37 -37 -37 -37 -37 -37 -37 -38 -38 -38 -39 -39 -39
-20 -20 -20 -20 -20 -20 -20 -20 -20 -21 -21 -21 -21 -22 -22 -22 -23 -23 -24 -24 -25 -26 -27 -28 -28 -28 -28 -29 -29 -29 -30 -31 -32 -32 -33 -33 -34 -34 -34 -35 -36 -36 -37 -37 -37 -37 -37 -37 -37 -37 -37 -38 -38 -39
-20 -20 -20 -20 -20 -20 -20 -20 -20 -20 -21 -21 -21 -22 -22 -22 -22 -23 -23 -24 -25 -26 -27 -27 -27 -28 -28 -28 -29 -29 -29 -30 -30 -31 -32 -33 -33 -34 -34 -34 -35 -35 -36 -36 -36 -37 -37 -37 -37 -37 -37 -37 -37 -37
-20 -20 -20 -20 -20 -20 -20 -20 -20 -20 -21 -21 -21 -21 -22 -22 -22 -23 -23 -23 -24 -25 -27 -28 -28 -28 -28 -28 -29 -29 -29 -29 -30 -31 -31 -32 -32 -32 -33 -34 -34 -34 -35 -35 -36 -37 -37 -37 -37 -37 -37 -37 -37 -37
-20 -20 -20 -20 -20 -20 -20 -20 -20 -20 -21 -21 -21 -21 -22 -22 -22 -23 -23 -23 -24 -24 -25 -26 -27 -28 -29 -29 -29 -29 -29 -29 -29 -30 -31 -32 -32 -32 -33 -33 -33 -34 -34 -35 -35 -36 -37 -37 -37 -37 -37 -37 -37 -37
-20 -19 -20 -20 -20 -20 -20 -20 -20 -20 -21 -21 -21 -21 -22 -22 -22 -23 -23 -23 -23 -24 -25 -25 -26 -27 -29 -29 -29 -29 -30 -30 -30 -31 -31 -31 -31 -32 -32 -33 -33 -33 -34 -34 -35 -35 -36 -36 -37 -37 -37 -37 -37 -37
-20 -19 -20 -20 -20 -20 -20 -20 -20 -20 -21 -21 -21 -21 -21 -22 -22 -22 -23 -23 -24 -24 -25 -26 -27 -27 -28 -28 -29 -29 -30 -30 -30 -30 -30 -30 -30 -31 -32 -32 -32 -33 -33 -34 -35 -35 -35 -35 -36 -37 -37 -37 -37 -37
-20 -19 -20 -20 -20 -20 -20 -20 -20 -20 -21 -21 -21 -21 -21 -22 -22 -22 -23 -23 -23 -24 -25 -25 -26 -27 -28 -29 -29 -29 -29 -30 -30 -30 -30 -30 -30 -30 -31 -31 -32 -32 -33 -33 -34 -34 -35 -35 -35 -36 -36 -37 -37 -37
-20 -20 -20 -20 -20 -20 -20 -20 -20 -20 -21 -21 -21 -21 -21 -21 -22 -22 -23 -23 -23 -24 -24 -24 -25 -26 -27 -28 -29 -30 -30 -30 -30 -30 -30 -30 -30 -30 -31 -31 -31 -32 -32 -33 -33 -33 -34 -35 -35 -35 -36 -36 -36 -37
-21 -21 -20 -20 -20 -20 -20 -20 -20 -20 -21 -21 -21 -21 -21 -21 -22 -22 -23 -23 -23 -24 -24 -24 -25 -25 -26 -26 -27 -28 -29 -29 -30 -30 -30 -30 -30 -31 -31 -31 -31 -31 -32 -32 -33 -33 -33 -34 -34 -34 -35 -35 -36 -36
-21 -21 -21 -20 -20 -20 -20 -20 -20 -20 -21 -21 -21 -21 -21 -22 -22 -22 -23 -23 -23 -24 -24 -24 -24 -25 -26 -26 -27 -27 -28 -29 -30 -30 -30 -31 -31 -31 -31 -31 -31 -31 -31 -31 -32 -33 -33 -33 -34 -34 -34 -35 -35 -35
Height
5721 5716 5709 5701 5694 5686 5678 5668 5658 5647 5636 5624 5612 5598 5585 5572 5558 5543 5527 5512 5499 5486 5474 5464 5453 5443 5432 5426 5420 5414 5409 5404 5399 5395 5390 5385 5380 5377 5373 5370 5367 5364 5361 5359 5356 5354 5353 5350 5349 5348 5346 5344 5343 5343
5716 5710 5704 5696 5689 5683 5675 5663 5654 5643 5633 5620 5606 5593 5580 5567 5553 5537 5523 5508 5494 5482 5471 5461 5450 5440 5432 5424 5418 5413 5408 5403 5398 5393 5388 5384 5381 5377 5373 5370 5366 5363 5361 5358 5356 5354 5352 5349 5348 5346 5345 5343 5342 5341
5712 5706 5699 5693 5687 5680 5671 5661 5651 5642 5629 5616 5602 5589 5576 5562 5547 5534 5518 5504 5490 5480 5470 5458 5449 5439 5430 5424 5418 5413 5408 5403 5399 5394 5390 5386 5383 5379 5375 5371 5368 5364 5360 5357 5356 5352 5349 5347 5345 5343 5341 5340 5338 5337
5709 5702 5695 5689 5684 5676 5668 5659 5650 5639 5627 5613 5599 5587 5573 5559 5545 5530 5516 5501 5490 5479 5469 5458 5448 5439 5430 5424 5418 5413 5409 5404 5400 5396 5392 5387 5384 5379 5376 5373 5369 5366 5362 5359 5355 5352 5348 5344 5341 5339 5336 5334 5332 5331
5706 5700 5693 5689 5682 5674 5666 5659 5648 5637 5624 5611 5598 5585 5571 5557 5544 5529 5514 5502 5490 5480 5468 5458 5448 5440 5432 5425 5419 5414 5409 5405 5401 5397 5392 5389 5385 5381 5376 5373 5369 5364 5361 5357 5353 5349 5345 5342 5339 5335 5332 5329 5326 5324
5703 5697 5692 5686 5681 5673 5667 5657 5647 5635 5623 5610 5598 5584 5571 5559 5544 5529 5517 5503 5490 5480 5471 5462 5451 5441 5433 5426 5421 5416 5411 5406 5403 5398 5394 5390 5386 5382 5377 5372 5367 5362 5356 5352 5349 5345 5339 5336 5332 5328 5325 5322 5318 5316
5700 5697 5691 5686 5681 5674 5666 5656 5646 5635 5623 5610 5598 5586 5574 5560 5543 5532 5516 5503 5494 5483 5475 5463 5451 5442 5434 5427 5422 5417 5412 5408 5404 5399 5394 5390 5385 5381 5375 5370 5365 5359 5354 5348 5341 5337 5334 5327 5324 5319 5315 5312 5309 5306
5698 5695 5690 5686 5680 5673 5664 5656 5646 5635 5623 5611 5600 5588 5574 5560 5545 5530 5519 5508 5497 5487 5476 5463 5452 5444 5436 5430 5424 5418 5413 5409 5404 5399 5394 5388 5384 5377 5372 5366 5359 5352 5346 5340 5333 5327 5321 5316 5311 5305 5301 5298 5295 5291
5697 5695 5691 5685 5679 5672 5665 5656 5647 5636 5625 5614 5603 5591 5578 5565 5550 5537 5524 5512 5499 5490 5476 5463 5456 5447 5439 5432 5426 5420 5415 5410 5405 5399 5393 5387 5380 5372 5365 5357 5350 5341 5333 5326 5321 5313 5306 5300 5295 5290 5285 5281 5277 5273
5698 5695 5690 5684 5679 5672 5665 5657 5648 5638 5628 5618 5608 5597 5583 5568 5554 5543 5529 5516 5505 5492 5478 5470 5460 5451 5443 5433 5427 5421 5416 5410 5403 5398 5390 5381 5372 5364 5356 5347 5338 5330 5323 5315 5309 5303 5296 5288 5281 5274 5268 5262 5257 5253
5699 5694 5688 5684 5679 5673 5665 5657 5649 5640 5631 5622 5614 5600 5586 5572 5559 5545 5530 5520 5503 5491 5482 5473 5463 5454 5444 5437 5429 5422 5416 5407 5400 5394 5385 5376 5367 5359 5350 5341 5333 5325 5317 5308 5299 5289 5280 5272 5265 5257 5250 5243 5237 5233
5697 5692 5689 5685 5679 5671 5665 5659 5651 5642 5633 5627 5618 5603 5589 5576 5561 5548 5533 5517 5506 5497 5488 5479 5469 5457 5449 5440 5432 5423 5416 5408 5398 5389 5380 5370 5362 5353 5346 5339 5330 5321 5311 5301 5290 5279 5269 5258 5248 5240 5232 5226 5220 5213
5695 5693 5689 5683 5678 5672 5666 5660 5652 5645 5636 5631 5620 5603 5591 5580 5567 5551 5538 5524 5513 5504 5493 5482 5472 5464 5453 5442 5432 5425 5415 5406 5396 5386 5376 5368 5360 5352 5343 5335 5326 5314 5303 5292 5281 5269 5257 5246 5235 5225 5217 5209 5202 5196
5696 5692 5687 5683 5678 5673 5667 5661 5654 5646 5640 5634 5618 5603 5593 5580 5568 5555 5542 5530 5519 5507 5496 5485 5476 5468 5456 5444 5434 5423 5413 5401 5392 5383 5375 5366 5358 5349 5340 5330 5319 5309 5296 5283 5270 5257 5245 5234 5224 5213 5203 5194 5186 5180
5694 5690 5687 5684 5680 5675 5669 5663 5655 5648 5644 5632 5616 5605 5595 5586 5573 5560 5548 5535 5524 5512 5500 5491 5484 5473 5458 5445 5433 5422 5412 5404 5389 5380 5372 5365 5356 5347 5338 5327 5315 5302 5289 5275 5260 5247 5234 5222 5210 5199 5188 5178 5169 5162
5692 5690 5687 5684 5681 5676 5670 5664 5656 5652 5646 5630 5618 5609 5600 5587 5576 5565 5554 5543 5531 5518 5506 5496 5484 5470 5458 5446 5435 5423 5414 5402 5393 5383 5374 5365 5356 5346 5335 5324 5312 5298 5283 5268 5253 5238 5223 5210 5197 5185 5175 5165 5157 5148
5692 5690 5688 5685 5681 5675 5670 5664 5658 5655 5642 5632 5622 5614 5604 5593 5584 5572 5560 5549 5536 5523 5510 5499 5485 5472 5462 5449 5439 5427 5415 5406 5395 5385 5375 5365 5355 5345 5334 5323 5311 5296 5280 5265 5249 5233 5219 5205 5192 5180 5168 5158 5148 5140
5692 5690 5688 5685 5681 5677 5671 5666 5662 5653 5644 5635 5626 5617 5607 5597 5586 5575 5564 5552 5541 5528 5517 5505 5491 5478 5465 5455 5444 5435 5424 5412 5398 5385 5375 5365 5355 5344 5333 5322 5308 5294 5279 5263 5247 5231 5218 5202 5187 5175 5164 5153 5144 5135
5691 5690 5688 5685 5681 5677 5672 5669 5662 5654 5645 5638 5629 5619 5610 5600 5590 5579 5567 5556 5544 5532 5523 5508 5494 5482 5470 5458 5447 5436 5426 5416 5404 5391 5377 5365 5354 5344 5334 5321 5309 5296 5281 5266 5250 5234 5215 5199 5185 5173 5163 5153 5144 5136
5690 5689 5687 5685 5682 5678 5673 5668 5662 5654 5647 5640 5630 5621 5612 5602 5592 5580 5570 5558 5547 5537 5525 5511 5499 5486 5475 5462 5450 5438 5426 5415 5406 5397 5384 5370 5358 5347 5334 5322 5310 5297 5284 5270 5254 5235 5219 5203 5189 5177 5165 5155 5146 5138
5689 5689 5687 5685 5681 5677 5673 5668 5662 5655 5649 5641 5631 5622 5614 5605 5595 5583 5573 5562 5551 5540 5526 5513 5501 5490 5477 5466 5454 5442 5431 5420 5408 5396 5385 5374 5361 5346 5336 5325 5312 5300 5289 5275 5257 5240 5223 5208 5195 5181 5169 5159 5151 5143
5688 5688 5686 5683 5681 5677 5673 5669 5663 5657 5650 5642 5633 5624 5615 5606 5597 5587 5577 5567 5555 5542 5530 5518 5507 5496 5484 5473 5461 5449 5437 5424 5411 5399 5388 5377 5366 5354 5341 5328 5316 5305 5293 5278 5262 5247 5230 5217 5201 5189 5177 5166 5157 5149
5687 5686 5685 5683 5680 5677 5674 5668 5663 5657 5650 5642 5634 5626 5618 5608 5599 5589 5580 5568 5557 5545 5534 5522 5510 5499 5487 5475 5463 5452 5442 5431 5420 5407 5393 5379 5367 5356 5343 5331 5320 5309 5298 5283 5269 5254 5241 5227 5214 5200 5188 5177 5167 5159
5686 5685 5684 5682 5679 5676 5672 5668 5662 5657 5650 5643 5635 5627 5619 5610 5601 5591 5581 5571 5560 5549 5538 5528 5516 5504 5494 5483 5473 5461 5449 5435 5423 5411 5399 5388 5376 5363 5350 5340 5326 5314 5301 5289 5277 5263 5252 5240 5228 5215 5203 5192 5182 5173
5685 5684 5683 5681 5678 5675 5671 5666 5662 5656 5650 5644 5636 5628 5620 5612 5604 5595 5584 5572 5563 5554 5543 5532 5522 5512 5502 5490 5478 5467 5456 5444 5432 5420 5406 5395 5384 5371 5359 5346 5334 5322 5309 5298 5285 5274 5263 5251 5240 5228 5218 5208 5198 5189
5681 5681 5681 5679 5677 5674 5670 5665 5660 5656 5649 5643 5636 5628 5621 5614 5605 5595 5586 5577 5568 5557 5548 5539 5528 5518 5507 5496 5485 5475 5464 5450 5436 5423 5412 5401 5390 5379 5368 5357 5346 5332 5318 5304 5291 5283 5271 5262 5252 5240 5231 5222 5213 5205
5678 5678 5677 5676 5674 5672 5668 5664 5659 5654 5648 5642 5636 5629 5621 5613 5604 5596 5587 5578 5570 5560 5550 5541 5532 5521 5511 5500 5487 5476 5465 5453 5442 5430 5417 5406 5395 5384 5373 5362 5352 5339 5325 5311 5301 5290 5280 5273 5262 5252 5244 5235 5227 5220
5675 5675 5674 5674 5671 5669 5665 5662 5657 5653 5647 5641 5635 5628 5620 5612 5605 5597 5588 5580 5570 5561 5552 5543 5534 5524 5514 5503 5492 5481 5469 5457 5446 5433 5422 5414 5404 5391 5379 5368 5357 5343 5331 5321 5310 5300 5289 5281 5272 5263 5255 5247 5239 5232
5671 5671 5671 5669 5667 5665 5662 5659 5655 5650 5645 5640 5634 5627 5621 5613 5606 5598 5590 5581 5571 5561 5552 5542 5533 5524 5516 5507 5498 5489 5480 5470 5461 5451 5441 5429 5416 5402 5388 5378 5366 5354 5341 5330 5319 5309 5298 5288 5279 5271 5264 5256 5249 5242
5667 5667 5666 5665 5663 5661 5659 5656 5652 5648 5643 5638 5632 5626 5620 5613 5606 5598 5590 5582 5573 5564 5555 5545 5536 5528 5519 5510 5502 5494 5485 5476 5466 5457 5447 5435 5422 5408 5399 5387 5374 5362 5351 5341 5330 5320 5308 5298 5288 5279 5271 5264 5256 5250
5662 5662 5661 5660 5658 5656 5654 5651 5648 5645 5640 5635 5630 5624 5618 5611 5604 5597 5589 5582 5574 5566 5557 5549 5540 5531 5522 5514 5506 5497 5488 5479 5469 5460 5449 5437 5426 5416 5406 5394 5383 5371 5361 5350 5340 5330 5319 5310 5300 5290 5281 5272 5263 5256
5657 5656 5655 5654 5653 5651 5649 5646 5644 5641 5637 5632 5627 5621 5616 5609 5603 5596 5589 5581 5574 5566 5558 5549 5541 5533 5525 5517 5509 5501 5492 5482 5473 5464 5454 5444 5433 5422 5412 5402 5391 5380 5370 5359 5348 5338 5327 5318 5309 5299 5290 5280 5271 5262
5652 5650 5649 5648 5646 5645 5643 5641 5639 5636 5632 5628 5623 5618 5612 5606 5600 5593 5587 5580 5573 5565 5558 5550 5542 5533 5525 5517 5509 5500 5491 5483 5475 5466 5456 5447 5437 5427 5418 5409 5400 5390 5379 5367 5357 5346 5336 5326 5316 5306 5297 5288 5279 5270
Wind_Speed
37 33 36 40 41 37 37 42 48 52 56 57 58 58 58 57 59 62 63 58 52 47 44 43 43 41 38 31 28 26 22 22 21 18 18 18 17 17 15 15 12 11 11 10 11 10 9 9 9 8 6 5 4 4
30 31 36 37 34 34 39 44 49 53 55 56 57 58 57 58 61 63 59 55 50 46 44 43 42 41 38 33 28 25 23 19 20 20 19 18 17 17 18 17 16 16 15 14 14 13 11 11 10 9 9 9 9 9
28 33 35 32 30 35 42 46 50 52 53 55 57 56 57 60 61 60 58 54 49 45 44 44 43 42 38 32 27 23 20 20 20 19 18 18 19 18 19 19 19 18 20 20 18 19 17 15 15 15 14 13 14 15
30 32 29 26 31 38 43 46 49 50 53 55 56 56 58 60 60 59 56 53 46 45 45 45 44 40 35 30 27 24 20 20 21 21 21 21 22 23 24 23 21 17 16 14 15 14 17 19 18 16 18 19 19 20
30 27 24 27 34 40 42 45 46 49 53 55 55 56 59 60 58 57 55 49 46 47 46 45 43 38 34 28 26 25 23 24 24 24 24 24 23 22 22 21 22 21 19 19 18 18 17 18 18 17 17 18 20 21
27 22 23 29 36 39 42 42 45 49 53 54 55 57 58 59 57 56 51 51 48 47 46 45 42 39 36 30 27 26 25 25 24 25 24 24 24 23 23 23 23 23 25 26 24 25 26 25 25 25 24 25 26 25
20 20 25 31 35 38 37 41 44 49 52 54 56 57 57 59 60 56 56 52 48 47 45 47 46 43 37 33 29 27 26 25 24 24 23 24 24 24 25 26 25 26 28 30 33 33 31 33 32 33 34 33 33 34
17 19 26 30 33 32 37 40 44 49 52 55 56 56 59 60 59 59 55 52 50 48 50 51 49 44 40 34 31 29 27 26 25 26 26 28 28 29 30 31 32 34 34 35 36 38 38 38 39 40 41 41 41 42
15 20 25 28 28 33 35 39 43 48 51 54 55 56 56 58 59 59 55 53 53 52 55 55 53 47 42 34 31 26 25 26 27 27 29 32 33 35 38 40 41 43 43 42 41 42 43 44 44 45 46 47 48 48
15 20 23 23 28 31 34 38 43 47 50 52 53 52 54 58 61 60 60 56 53 54 55 54 53 48 42 36 31 27 22 27 28 33 35 41 46 47 46 45 45 42 39 38 36 36 36 37 39 39 41 42 44 46
15 18 19 23 26 29 34 38 42 46 49 51 48 52 57 58 59 61 63 60 61 58 56 55 54 51 47 40 35 32 29 38 40 42 45 46 47 45 42 40 39 41 42 43 45 46 46 46 45 44 44 45 45 46
14 15 17 22 25 29 33 36 40 44 46 47 46 53 56 59 60 63 65 66 62 56 53 52 53 54 49 42 39 39 38 40 43 46 47 47 45 41 40 40 42 43 45 46 48 49 48 48 47 46 45 43 43 43
11 11 17 21 25 28 31 35 39 41 44 43 46 53 57 59 61 63 65 64 60 56 53 52 53 53 50 45 43 42 42 45 49 50 48 43 38 40 43 45 45 48 50 52 51 50 49 46 45 45 43 42 41 40
5 12 18 21 24 27 30 33 36 40 41 41 49 56 58 61 63 63 64 64 62 59 56 53 52 53 53 50 47 49 51 58 57 52 43 37 41 44 46 49 50 52 55 55 54 52 49 47 44 43 43 43 41 40
7 13 16 19 22 25 29 31 36 39 37 44 54 56 57 59 61 63 64 64 63 62 59 54 50 52 55 55 53 54 57 59 60 54 43 41 44 45 49 51 54 57 59 60 59 55 51 50 49 46 45 43 41 38
9 12 15 19 22 25 29 32 36 35 36 48 52 53 55 58 60 61 63 64 64 64 62 58 56 56 57 57 56 56 57 61 59 51 43 43 44 46 50 53 57 60 63 64 63 60 57 56 53 50 45 42 39 37
10 12 15 17 20 26 30 33 35 35 45 47 49 50 52 55 58 60 61 63 65 65 63 63 63 59 58 57 57 56 58 59 60 53 44 44 46 46 49 54 58 62 65 67 66 61 59 55 49 45 42 39 37 34
10 12 14 16 20 25 30 32 34 39 42 45 46 47 49 51 54 57 60 62 64 66 65 64 65 64 61 59 57 56 57 57 60 59 51 46 46 47 51 55 60 64 66 68 68 63 58 55 51 46 42 40 37 34
9 11 12 15 19 23 28 29 35 38 42 43 44 46 48 50 52 54 58 61 63 65 65 68 67 65 64 61 60 59 59 58 58 60 58 51 49 49 51 56 59 63 66 68 69 65 62 59 54 49 43 39 36 33
9 9 10 13 18 22 25 29 33 38 40 42 44 46 47 50 52 54 56 58 60 62 65 67 68 67 65 63 62 62 62 63 62 59 61 61 55 49 51 54 58 61 65 66 68 69 63 61 57 50 45 41 38 35
8 8 8 12 16 20 24 28 31 36 37 40 43 46 47 49 51 54 54 56 58 61 65 68 68 66 65 65 63 62 61 61 64 65 64 65 65 59 52 52 57 60 63 66 69 70 68 63 60 56 50 44 40 36
8 7 7 11 14 18 22 26 30 33 36 39 42 45 46 49 50 53 54 55 58 61 63 65 67 67 66 64 65 64 62 61 62 64 64 65 67 66 60 54 54 57 61 65 68 70 70 66 63 59 55 49 45 41
7 5 5 8 12 16 20 24 28 31 34 37 40 42 45 47 49 52 53 56 58 59 60 62 65 67 68 66 65 65 65 63 63 63 64 65 67 69 68 61 55 54 58 62 66 68 69 69 66 63 60 55 50 46
6 2 3 6 11 15 19 23 26 29 32 35 38 40 43 45 48 50 52 54 55 57 58 59 61 64 66 67 67 66 66 66 66 64 64 64 64 66 69 68 62 55 56 59 63 65 65 66 66 66 63 59 55 52
6 2 2 5 9 13 18 21 25 28 30 34 37 39 42 43 45 48 52 54 54 53 54 56 59 60 63 65 67 68 68 67 67 67 65 64 64 64 65 68 68 64 57 55 58 61 62 62 61 62 62 61 58 56
5 3 1 4 8 13 16 20 24 27 30 33 35 38 41 43 46 48 50 52 53 53 52 52 53 57 60 63 64 66 67 68 69 68 68 67 65 66 65 64 65 68 67 61 56 56 58 59 59 59 57 56 55 53
7 4 3 5 8 13 17 20 23 26 28 31 34 37 40 43 46 48 49 51 51 54 55 54 53 54 56 60 63 65 67 69 70 70 69 68 68 66 66 66 65 68 70 69 63 57 54 54 55 56 55 54 51 49
9 7 7 8 10 13 16 19 22 24 27 30 33 36 40 43 44 46 48 49 52 54 54 55 55 54 54 57 60 62 65 66 68 67 67 67 68 67 66 65 66 67 67 68 68 66 59 53 51 51 51 51 50 48
11 11 12 10 10 12 15 18 20 23 26 29 32 35 38 40 42 44 46 48 50 52 53 54 54 54 55 55 56 58 59 61 62 63 64 66 67 67 67 66 65 65 65 64 66 67 67 63 55 48 46 46 46 46
14 15 14 13 12 12 14 16 19 22 25 27 30 33 36 39 41 43 44 46 48 50 51 52 51 50 50 51 52 54 56 58 60 62 63 65 67 69 67 68 68 66 64 63 62 63 64 64 63 58 49 43 41 40
17 17 16 15 15 15 15 14 17 20 23 26 29 32 35 38 40 42 43 45 46 48 49 51 51 51 51 50 49 50 53 55 58 60 62 64 65 66 67 69 69 67 65 64 62 61 61 61 63 63 60 55 46 38
18 18 18 18 17 16 17 15 16 19 22 25 28 31 34 36 38 41 42 43 45 46 47 49 50 51 51 51 50 50 51 52 54 56 58 60 62 64 65 66 68 68 66 66 64 63 61 59 60 61 61 62 58 53
18 19 20 19 19 18 17 15 15 18 21 24 27 30 33 35 37 39 41 43 44 45 47 48 49 50 50 51 51 52 51 51 52 53 56 57 59 61 63 64 65 66 67 67 65 64 62 61 59 58 60 61 61 60
Wind_Direction
322 328 327 331 332 337 338 340 340 342 341 341 340 341 342 343 344 345 345 346 347 350 350 351 349 351 353 357 354 354 355 350 352 342 342 351 357 358 353 359 349 346 355 353 356 359 2 3 3 1 353 342 342 296
331 330 327 333 339 339 341 343 343 343 342 342 343 345 346 346 346 347 348 350 353 356 354 353 353 354 356 359 360 354 357 355 347 346 353 358 3 6 6 359 3 1 -0 -0 355 353 344 337 328 317 308 302 298 289
328 327 331 338 341 343 343 345 344 343 344 345 347 348 348 348 349 350 353 357 359 359 357 358 358 355 357 1 3 2 3 356 5 6 9 9 14 12 16 13 7 355 352 347 351 343 337 331 324 315 301 293 288 282
320 326 336 343 343 345 346 345 344 346 347 349 351 351 351 351 353 355 359 2 1 3 2 2 359 359 359 2 6 7 8 9 14 15 13 12 10 12 5 0 358 358 358 350 340 332 329 325 325 316 306 301 295 289
320 334 345 345 345 347 346 344 348 349 351 353 354 355 354 355 357 0 4 4 6 9 6 3 2 3 3 5 10 10 11 15 17 14 13 10 6 4 355 348 341 341 339 338 338 331 326 320 317 316 311 305 300 294
329 343 344 346 347 347 345 350 352 353 356 357 358 358 357 358 2 7 8 9 12 12 11 6 9 9 10 12 12 11 12 11 9 5 1 360 357 351 344 341 340 338 336 330 325 320 318 313 308 302 299 297 297 292
339 344 347 348 347 347 351 355 356 359 1 1 1 360 359 2 7 9 11 13 12 14 11 12 15 13 12 13 12 12 10 5 3 359 357 355 348 342 336 329 327 325 320 316 312 308 305 302 298 294 291 287 284 281
342 344 348 348 348 353 358 358 0 4 5 5 3 2 3 6 9 12 13 15 14 15 14 16 16 13 12 11 9 6 5 -0 355 350 347 344 338 336 333 331 327 322 317 313 308 304 302 299 297 295 292 288 285 282
345 346 349 350 356 360 1 2 5 8 9 8 6 4 6 11 12 14 15 16 16 15 16 18 14 12 11 8 5 1 357 351 346 347 346 345 343 341 339 335 329 325 322 317 313 309 306 302 298 293 289 285 283 280
347 347 353 359 1 6 5 7 9 11 13 11 8 7 10 14 14 14 15 16 19 18 19 17 14 12 10 10 7 2 358 356 354 355 351 349 350 344 340 335 333 334 335 333 330 323 317 312 307 302 297 292 287 281
342 352 1 4 9 8 11 12 12 14 14 12 8 13 15 16 14 14 16 16 17 18 17 15 15 12 11 12 9 7 2 0 358 354 352 350 348 344 344 346 344 342 338 335 331 327 323 319 313 308 303 298 293 289
350 358 9 14 12 13 15 14 15 15 15 11 11 18 19 18 18 16 16 17 19 18 15 15 15 12 11 9 7 6 3 359 356 352 354 353 350 352 353 350 347 343 341 338 333 330 327 323 318 314 309 304 299 295
357 9 20 19 17 17 19 18 19 17 16 9 15 21 22 22 21 19 18 20 19 17 15 16 15 12 10 11 11 6 5 2 -0 0 359 357 359 356 353 351 350 347 344 341 338 335 330 327 324 320 316 311 307 301
7 30 29 23 21 21 23 21 20 20 17 11 22 25 24 23 22 20 19 19 19 18 18 17 14 11 12 13 11 10 7 5 4 6 5 3 0 358 355 354 352 351 349 346 344 341 338 335 330 324 318 313 308 303
49 41 33 31 29 28 28 26 27 25 15 21 26 26 23 22 21 20 19 19 18 19 19 18 14 13 15 15 14 13 10 8 5 4 6 4 -0 357 357 357 356 355 354 352 350 348 344 340 337 332 327 322 318 312
63 48 40 38 35 37 37 33 33 25 23 29 30 27 24 22 20 19 19 19 19 19 19 18 16 17 18 17 14 14 11 9 7 5 4 2 0 -0 0 -0 359 358 357 356 355 352 350 346 343 340 337 332 326 320
73 58 48 44 43 41 39 36 34 26 28 28 28 26 25 23 20 19 18 19 20 20 19 17 18 20 17 18 17 14 12 9 8 7 5 2 2 2 2 2 2 2 1 359 359 356 354 351 347 347 345 342 340 335
83 65 56 50 47 42 39 36 30 27 28 26 23 19 18 17 16 16 16 17 19 20 20 20 19 19 19 18 18 16 16 13 9 8 7 4 3 3 2 2 4 4 3 2 2 0 358 360 359 360 358 356 354 354
92 72 59 50 47 43 39 31 29 25 24 22 20 17 14 13 12 13 13 15 17 19 18 20 21 21 19 18 17 15 15 16 15 12 10 8 5 4 3 4 5 6 6 5 5 5 6 6 6 6 5 4 3 6
95 72 55 52 47 41 37 28 26 25 20 17 18 17 15 12 10 11 12 12 14 16 17 19 21 20 21 19 17 16 14 13 15 16 14 13 10 6 5 5 6 8 8 8 9 11 12 12 11 10 10 11 13 13
101 78 63 51 42 36 30 24 22 20 16 15 14 14 14 13 11 11 12 11 12 13 16 18 19 20 19 19 18 16 15 14 13 14 16 16 14 13 10 7 8 9 10 11 14 15 16 16 16 17 18 18 18 19
111 92 67 46 34 28 22 21 18 17 15 14 14 13 11 11 11 11 11 11 13 14 15 17 18 19 20 19 19 18 17 16 15 14 14 15 17 16 14 12 10 10 11 15 17 19 20 20 21 22 23 23 24 24
129 99 55 33 26 22 16 15 13 14 12 13 14 13 11 10 10 9 10 12 12 13 15 15 16 17 19 19 18 19 18 18 18 16 16 15 16 16 17 15 12 11 13 17 19 21 22 24 25 26 27 28 29 30
150 118 30 16 22 16 15 11 10 10 10 11 12 12 11 11 10 9 9 11 13 13 13 16 16 16 18 19 20 19 19 18 18 19 19 17 17 17 17 18 16 14 15 18 20 23 23 25 26 29 30 32 34 36
172 144 17 11 16 10 11 10 7 7 7 9 10 10 11 10 10 10 10 11 12 14 14 13 15 16 16 18 19 20 20 20 20 20 20 19 19 19 18 17 18 19 19 19 22 22 24 25 26 29 31 34 36 38
186 189 342 357 352 355 -0 1 2 2 4 6 6 7 8 8 10 10 11 11 10 12 14 15 15 14 14 16 18 20 20 21 21 20 20 19 19 20 20 20 20 21 22 22 23 22 23 24 27 29 29 31 34 37
197 201 239 303 330 344 350 352 354 357 1 3 3 5 6 7 8 8 8 8 9 11 12 13 15 14 14 15 17 17 19 21 22 22 21 19 18 19 19 20 20 22 24 25 24 22 23 22 24 28 30 30 32 33
203 212 248 285 319 337 342 346 350 353 356 359 1 4 5 6 5 5 5 6 7 9 10 11 12 14 14 13 16 17 19 20 22 21 19 19 19 19 19 18 19 21 23 24 25 25 24 22 23 24 27 30 31 32
215 230 254 277 304 326 334 340 344 349 353 356 359 1 3 4 3 3 3 4 5 6 7 8 9 10 11 13 13 14 15 17 20 22 22 22 22 21 20 19 19 21 22 22 23 24 25 24 22 21 22 24 28 30
231 240 255 270 288 306 321 331 336 342 347 352 355 358 -0 1 1 1 2 3 5 6 6 6 7 8 9 10 10 10 11 12 13 15 17 20 23 24 22 21 21 21 21 21 23 23 24 24 24 23 20 19 21 23
248 251 259 266 277 292 307 318 329 336 341 346 350 354 356 357 358 359 -0 1 2 4 4 5 6 6 7 7 7 8 8 9 10 12 14 17 21 22 22 22 22 22 22 21 21 22 23 24 24 24 24 24 20 17
263 268 268 268 273 286 298 304 317 328 334 340 345 348 351 352 355 356 357 358 360 1 1 3 3 4 5 5 5 6 8 9 9 10 13 15 17 19 20 21 22 22 21 21 21 21 21 21 23 24 23 24 23 22
271 273 272 272 275 282 289 292 306 319 328 334 339 342 345 348 350 352 354 355 356 358 359 0 1 2 2 2 2 3 5 6 6 7 9 12 15 17 17 18 19 19 21 22 22 21 21 20 20 21 21 23 23 22